Location: Calvatone
(45.1167°N, 10.4333°E)
Time: 23:14:21
(UTC+00:00)

BlueWalker 3 - Visible Passes

Search period start: 30 May 2024 00:00
Search period end: 09 June 2024 00:00
Orbit: 481 x 494 km, 53.2° (Epoch: 30 May)

Date Brightness Start Highest point End Pass type
(mag) Time Alt. Az. Time Alt. Az. Time Alt. Az.
31 May 3.8 02:39:44 10° S 02:42:32 20° SE 02:45:20 10° E visible
01 Jun 3.9 02:14:27 10° S 02:17:08 19° SE 02:19:50 10° E visible
02 Jun 3.9 01:49:55 13° SSE 01:51:43 18° SE 01:54:19 10° E visible
03 Jun 3.8 01:25:21 15° SSE 01:26:19 17° SE 01:28:46 10° E visible
04 Jun 3.9 01:00:44 16° SE 01:00:53 16° SE 01:03:11 10° E visible
04 Jun 1.9 02:35:05 11° WSW 02:38:37 85° NNW 02:42:22 10° NE visible
05 Jun 4.1 00:36:02 14° ESE 00:36:02 14° ESE 00:37:35 10° E visible
05 Jun 1.8 02:10:23 17° SW 02:13:08 89° NNW 02:16:54 10° ENE visible
06 Jun 4.3 00:11:16 12° ESE 00:11:16 12° ESE 00:11:57 10° E visible
06 Jun 1.8 01:45:37 25° SW 01:47:40 86° SE 01:51:25 10° ENE visible
07 Jun 1.7 01:20:47 37° SW 01:22:10 81° SE 01:25:55 10° ENE visible
08 Jun 1.7 00:55:54 53° SW 00:56:39 77° SE 01:00:25 10° ENE visible
08 Jun 3.5 02:31:46 10° W 02:35:08 30° NNW 02:38:29 10° NE visible
